Weather in Naju

South Korea     35°01′46″N   126°43′13″E
temp.,
°C
wind,
m/s
gust,
m/s
humid.,
%
clouds,
%
prec.,
mm/h
press.,
hPa
HPBL,
m
18 april, sun
sun1800:00+7wnw411573 0.0 1018465
03:00+7wnw613625 0.0 1017685
06:00+6nw411731 0.0 1018513
09:00+11nw811470 0.0 10191251
12:00+13nnw912400 0.0 10181440
15:00+14nw811390 0.0 10181267
18:00+11nw510510 0.0 1018841
21:00+6w11780 0.0 102010
19 april, mon
mon1900:00+5n11830 0.0 101910
03:00+4e11830 0.0 102010
06:00+4ese11790 0.0 102010
09:00+12wnw12520 0.0 1020344
12:00+17wnw56290 0.0 10191247
15:00+18wnw66300 0.0 10181115
18:00+15nw34470 0.0 1018362
21:00+9wsw11690 0.0 102010
20 april, tue
tue2000:00+7sw01750 0.0 102110
03:00+6nne117966 0.0 102110
06:00+6ne117784 0.0 102110
09:00+14n124852 0.0 1022304
12:00+21n342954 0.0 1022967
15:00+24nnw33255 0.0 10191476
18:00+19wnw3646100 0.0 1020187
21:00+13wsw115877 0.0 102211
21 april, wed
wed2100:00+12ene116252 0.0 102310
03:00+10e115837 0.0 102311
06:00+9e2260100 0.0 102312
09:00+18e354175 0.0 1023480
12:00+23se5729100 0.0 10221276
15:00+23se562966 0.0 10201237
18:00+19se364284 0.0 1020192
21:00+14se2258100 0.0 102212
22 april, thu
thu2200:00+14e1257100 0.0 102115
03:00+14ese2157100 0.0 101918
06:00+13e1159100 0.0 101912
09:00+19ese2444100 0.0 1019419
12:00+22s4635100 0.0 10181315
15:00+21se2442100 0.0 1016903
18:00+19ene3452100 0.0 101691
21:00+17e3554100 0.0 101793